| time (UTC) | temp F | wind direction | speed MPH | gust MPH | rain 1hr in | rain 24hr in | rain mn in | humidity % | barometer mb |
| 20260506034028 | 64 | 236 | 0.0 | 1.0 | 0.00 | 0.00 | 0.00 | 86 | 1018.5 |
| 20260506033528 | 64 | 0 | 0.0 | 1.0 | 0.00 | 0.00 | 0.00 | 86 | 1018.5 |
| 20260506033041 | 64 | 0 | 0.0 | 1.0 | 0.00 | 0.00 | 0.00 | 86 | 1018.5 |
| 20260506032530 | 64 | 0 | 0.0 | 1.0 | 0.00 | 0.00 | 0.00 | 85 | 1018.5 |
| 20260506032030 | 64 | 236 | 0.0 | 0.0 | 0.00 | 0.00 | 0.00 | 85 | 1018.4 |
| 20260506031545 | 65 | 0 | 0.0 | 2.0 | 0.00 | 0.00 | 0.00 | 85 | 1018.5 |
| 20260506031030 | 65 | 0 | 0.0 | 2.0 | 0.00 | 0.00 | 0.00 | 84 | 1018.7 |
| 20260506030529 | 65 | 237 | 0.0 | 2.0 | 0.00 | 0.00 | 0.00 | 84 | 1018.6 |
| 20260506030047 | 65 | 0 | 0.0 | 2.0 | 0.00 | 0.00 | 0.00 | 84 | 1018.6 |
| 20260506025608 | 65 | 228 | 0.0 | 1.0 | 0.00 | 0.00 | 0.00 | 84 | 1018.7 |
| 20260506025031 | 65 | 226 | 0.0 | 2.0 | 0.00 | 0.00 | 0.00 | 83 | 1018.6 |
| 20260506024549 | 65 | 154 | 0.0 | 2.0 | 0.00 | 0.00 | 0.00 | 83 | 1018.6 |
| 20260506024029 | 66 | 139 | 0.0 | 2.0 | 0.00 | 0.00 | 0.00 | 83 | 1018.5 |
| 20260506023529 | 66 | 0 | 0.0 | 2.0 | 0.00 | 0.00 | 0.00 | 83 | 1018.7 |
| 20260506023055 | 66 | 199 | 0.0 | 2.0 | 0.00 | 0.00 | 0.00 | 82 | 1018.7 |
| 20260506022529 | 66 | 0 | 1.0 | 3.0 | 0.00 | 0.00 | 0.00 | 82 | 1018.7 |
| 20260506022032 | 66 | 0 | 0.0 | 4.0 | 0.00 | 0.00 | 0.00 | 82 | 1018.7 |
| 20260506021555 | 66 | 211 | 2.0 | 4.0 | 0.00 | 0.00 | 0.00 | 83 | 1018.7 |
| 20260506021029 | 66 | 232 | 1.0 | 4.0 | 0.00 | 0.00 | 0.00 | 82 | 1018.6 |
| 20260506020530 | 66 | 231 | 2.0 | 4.0 | 0.00 | 0.00 | 0.00 | 82 | 1018.5 |
| 20260506020047 | 66 | 225 | 1.0 | 4.0 | 0.00 | 0.00 | 0.00 | 82 | 1018.5 |
| 20260506015535 | 66 | 174 | 0.0 | 1.0 | 0.00 | 0.00 | 0.00 | 81 | 1018.4 |
| 20260506015034 | 66 | 198 | 0.0 | 3.0 | 0.00 | 0.00 | 0.00 | 81 | 1018.3 |
| 20260506014546 | 66 | 232 | 1.0 | 3.0 | 0.00 | 0.00 | 0.00 | 81 | 1018.4 |
| 20260506014029 | 66 | 226 | 1.0 | 3.0 | 0.00 | 0.00 | 0.00 | 81 | 1018.3 |
| 20260506013529 | 66 | 231 | 1.0 | 2.0 | 0.00 | 0.00 | 0.00 | 81 | 1018.4 |
| 20260506013042 | 66 | 175 | 0.0 | 3.0 | 0.00 | 0.00 | 0.00 | 81 | 1018.3 |
| 20260506012533 | 66 | 189 | 0.0 | 3.0 | 0.00 | 0.00 | 0.00 | 80 | 1018.2 |
| 20260506012029 | 66 | 206 | 1.0 | 3.0 | 0.00 | 0.00 | 0.00 | 80 | 1018.2 |
| 20260506011542 | 66 | 204 | 1.0 | 3.0 | 0.00 | 0.00 | 0.00 | 79 | 1018.3 |
| 20260506011029 | 66 | 226 | 0.0 | 2.0 | 0.00 | 0.00 | 0.00 | 79 | 1018.2 |
| 20260506010529 | 66 | 226 | 0.0 | 2.0 | 0.00 | 0.00 | 0.00 | 78 | 1018.3 |
| 20260506010054 | 66 | 139 | 1.0 | 2.0 | 0.00 | 0.00 | 0.00 | 77 | 1018.3 |
| 20260506005530 | 66 | 205 | 0.0 | 2.0 | 0.00 | 0.00 | 0.00 | 77 | 1018.1 |
| 20260506005032 | 66 | 202 | 0.0 | 3.0 | 0.00 | 0.00 | 0.00 | 76 | 1018.2 |
| 20260506004551 | 66 | 197 | 1.0 | 3.0 | 0.00 | 0.00 | 0.00 | 76 | 1018.1 |
| 20260506004030 | 67 | 127 | 0.0 | 2.0 | 0.00 | 0.00 | 0.00 | 75 | 1018.1 |
| 20260506003530 | 67 | 134 | 0.0 | 3.0 | 0.00 | 0.00 | 0.00 | 75 | 1018.0 |
| 20260506003045 | 67 | 160 | 1.0 | 3.0 | 0.00 | 0.00 | 0.00 | 74 | 1018.1 |
| 20260506002533 | 67 | 219 | 1.0 | 5.0 | 0.00 | 0.00 | 0.00 | 73 | 1018.2 |
| 20260506002029 | 68 | 0 | 1.0 | 8.0 | 0.00 | 0.00 | 0.00 | 73 | 1018.0 |
| 20260506001546 | 68 | 181 | 2.0 | 8.0 | 0.00 | 0.00 | 0.00 | 72 | 1018.1 |
| 20260506001030 | 68 | 218 | 3.0 | 7.0 | 0.00 | 0.00 | 0.00 | 72 | 1018.1 |
| 20260506000530 | 68 | 233 | 3.0 | 7.0 | 0.00 | 0.00 | 0.00 | 71 | 1018.1 |
| 20260506000041 | 69 | 224 | 4.0 | 7.0 | 0.00 | 0.00 | 0.00 | 71 | 1018.0 |
| 20260505235529 | 69 | 205 | 3.0 | 10.0 | 0.00 | 0.00 | 0.00 | 70 | 1018.1 |
| 20260505235029 | 69 | 229 | 4.0 | 10.0 | 0.00 | 0.00 | 0.00 | 69 | 1018.0 |
| 20260505234601 | 69 | 205 | 6.0 | 10.0 | 0.00 | 0.00 | 0.00 | 69 | 1017.9 |
| 20260505234032 | 70 | 233 | 5.0 | 10.0 | 0.00 | 0.00 | 0.00 | 68 | 1018.0 |
| 20260505233529 | 70 | 250 | 7.0 | 10.0 | 0.00 | 0.00 | 0.00 | 68 | 1018.0 |
| 20260505233046 | 70 | 224 | 5.0 | 11.0 | 0.00 | 0.00 | 0.00 | 67 | 1018.1 |
| 20260505232529 | 70 | 236 | 5.0 | 11.0 | 0.00 | 0.00 | 0.00 | 67 | 1018.0 |
| 20260505232029 | 71 | 219 | 5.0 | 9.0 | 0.00 | 0.00 | 0.00 | 66 | 1018.1 |
| 20260505231540 | 71 | 257 | 5.0 | 13.0 | 0.00 | 0.00 | 0.00 | 65 | 1018.1 |
| 20260505231028 | 71 | 236 | 5.0 | 14.0 | 0.00 | 0.00 | 0.00 | 65 | 1018.0 |
| 20260505230529 | 71 | 206 | 8.0 | 17.0 | 0.00 | 0.00 | 0.00 | 64 | 1018.0 |
| 20260505230045 | 71 | 224 | 7.0 | 17.0 | 0.00 | 0.00 | 0.00 | 64 | 1018.0 |
| 20260505225530 | 71 | 193 | 8.0 | 15.0 | 0.00 | 0.00 | 0.00 | 64 | 1018.0 |
| 20260505225030 | 72 | 235 | 8.0 | 17.0 | 0.00 | 0.00 | 0.00 | 63 | 1018.0 |
| 20260505224543 | 72 | 229 | 10.0 | 17.0 | 0.00 | 0.00 | 0.00 | 63 | 1018.1 |
| 20260505224033 | 72 | 158 | 9.0 | 15.0 | 0.00 | 0.00 | 0.00 | 62 | 1018.1 |
| 20260505223529 | 72 | 167 | 8.0 | 15.0 | 0.00 | 0.00 | 0.00 | 62 | 1017.9 |
| 20260505223045 | 72 | 220 | 10.0 | 15.0 | 0.00 | 0.00 | 0.00 | 62 | 1018.0 |
| 20260505222533 | 73 | 223 | 6.0 | 13.0 | 0.00 | 0.00 | 0.00 | 63 | 1018.0 |
| 20260505222029 | 73 | 273 | 7.0 | 11.0 | 0.00 | 0.00 | 0.00 | 63 | 1017.9 |
| 20260505221546 | 72 | 250 | 6.0 | 13.0 | 0.00 | 0.00 | 0.00 | 62 | 1018.0 |
| 20260505221031 | 73 | 234 | 7.0 | 13.0 | 0.00 | 0.00 | 0.00 | 62 | 1018.0 |
| 20260505220529 | 73 | 220 | 6.0 | 18.0 | 0.00 | 0.00 | 0.00 | 63 | 1017.9 |
| 20260505220042 | 72 | 174 | 8.0 | 18.0 | 0.00 | 0.00 | 0.00 | 63 | 1017.8 |
| 20260505215529 | 72 | 231 | 8.0 | 19.0 | 0.00 | 0.00 | 0.00 | 63 | 1017.9 |
| 20260505215029 | 72 | 158 | 10.0 | 19.0 | 0.00 | 0.00 | 0.00 | 63 | 1017.9 |
| 20260505214603 | 72 | 172 | 8.0 | 19.0 | 0.00 | 0.00 | 0.00 | 61 | 1017.9 |
| 20260505214030 | 72 | 221 | 8.0 | 19.0 | 0.00 | 0.00 | 0.00 | 62 | 1017.8 |
| 20260505213529 | 72 | 201 | 7.0 | 16.0 | 0.00 | 0.00 | 0.00 | 63 | 1017.8 |
| 20260505213057 | 72 | 236 | 8.0 | 19.0 | 0.00 | 0.00 | 0.00 | 63 | 1017.8 |
| 20260505212531 | 72 | 219 | 13.0 | 19.0 | 0.00 | 0.00 | 0.00 | 64 | 1017.8 |
| 20260505212029 | 73 | 226 | 9.0 | 21.0 | 0.00 | 0.00 | 0.00 | 63 | 1017.8 |
| 20260505211548 | 73 | 173 | 9.0 | 21.0 | 0.00 | 0.00 | 0.00 | 63 | 1017.9 |
| 20260505211033 | 72 | 228 | 8.0 | 14.0 | 0.00 | 0.00 | 0.00 | 63 | 1017.8 |
| 20260505210530 | 72 | 222 | 7.0 | 17.0 | 0.00 | 0.00 | 0.00 | 62 | 1018.0 |
| 20260505210042 | 72 | 166 | 8.0 | 17.0 | 0.00 | 0.00 | 0.00 | 62 | 1018.2 |
| 20260505205529 | 73 | 211 | 6.0 | 16.0 | 0.00 | 0.00 | 0.00 | 61 | 1018.1 |
| 20260505205029 | 73 | 209 | 6.0 | 16.0 | 0.00 | 0.00 | 0.00 | 62 | 1017.9 |
| 20260505204554 | 73 | 159 | 6.0 | 16.0 | 0.00 | 0.00 | 0.00 | 63 | 1018.0 |
| 20260505204029 | 72 | 210 | 10.0 | 16.0 | 0.00 | 0.00 | 0.00 | 63 | 1018.0 |
| 20260505203530 | 72 | 203 | 7.0 | 21.0 | 0.00 | 0.00 | 0.00 | 63 | 1018.2 |
| 20260505203052 | 72 | 184 | 13.0 | 21.0 | 0.00 | 0.00 | 0.00 | 62 | 1018.0 |
| 20260505202530 | 73 | 185 | 9.0 | 20.0 | 0.00 | 0.00 | 0.00 | 62 | 1018.0 |
| 20260505202030 | 73 | 200 | 9.0 | 20.0 | 0.00 | 0.00 | 0.00 | 64 | 1018.0 |
| 20260505201545 | 73 | 226 | 11.0 | 17.0 | 0.00 | 0.00 | 0.00 | 60 | 1018.1 |
| 20260505201031 | 74 | 162 | 10.0 | 16.0 | 0.00 | 0.00 | 0.00 | 62 | 1018.2 |
| 20260505200530 | 74 | 229 | 9.0 | 15.0 | 0.00 | 0.00 | 0.00 | 62 | 1018.3 |
| 20260505200057 | 74 | 162 | 7.0 | 14.0 | 0.00 | 0.00 | 0.00 | 62 | 1018.3 |
| 20260505195529 | 74 | 243 | 6.0 | 14.0 | 0.00 | 0.00 | 0.00 | 63 | 1018.5 |
| 20260505195029 | 74 | 256 | 8.0 | 14.0 | 0.00 | 0.00 | 0.00 | 64 | 1018.6 |
| 20260505194547 | 73 | 215 | 6.0 | 17.0 | 0.00 | 0.00 | 0.00 | 63 | 1018.5 |
| 20260505194029 | 73 | 129 | 7.0 | 17.0 | 0.00 | 0.00 | 0.00 | 64 | 1018.6 |
| 20260505193528 | 73 | 231 | 9.0 | 17.0 | 0.00 | 0.00 | 0.00 | 63 | 1018.7 |
| 20260505193048 | 74 | 193 | 9.0 | 16.0 | 0.00 | 0.00 | 0.00 | 63 | 1018.7 |
| 20260505192533 | 74 | 196 | 6.0 | 13.0 | 0.00 | 0.00 | 0.00 | 64 | 1018.8 |
| 20260505192029 | 73 | 196 | 6.0 | 16.0 | 0.00 | 0.00 | 0.00 | 65 | 1018.8 |
| 20260505191539 | 73 | 243 | 9.0 | 16.0 | 0.00 | 0.00 | 0.00 | 65 | 1018.9 |
| 20260505191029 | 73 | 251 | 10.0 | 16.0 | 0.00 | 0.00 | 0.00 | 63 | 1018.9 |
| 20260505190529 | 73 | 173 | 9.0 | 18.0 | 0.00 | 0.00 | 0.00 | 64 | 1019.0 |
| 20260505190045 | 73 | 245 | 11.0 | 18.0 | 0.00 | 0.00 | 0.00 | 64 | 1019.0 |
| 20260505185531 | 73 | 252 | 9.0 | 16.0 | 0.00 | 0.00 | 0.00 | 64 | 1019.1 |
| 20260505185029 | 73 | 165 | 8.0 | 17.0 | 0.00 | 0.00 | 0.00 | 64 | 1019.1 |
| 20260505184545 | 73 | 223 | 10.0 | 17.0 | 0.00 | 0.00 | 0.00 | 65 | 1019.0 |
| 20260505184030 | 73 | 220 | 11.0 | 17.0 | 0.00 | 0.00 | 0.00 | 64 | 1019.2 |
| 20260505183529 | 73 | 226 | 9.0 | 20.0 | 0.00 | 0.00 | 0.00 | 63 | 1019.2 |
| 20260505183042 | 73 | 206 | 10.0 | 20.0 | 0.00 | 0.00 | 0.00 | 64 | 1019.1 |
| 20260505182529 | 73 | 211 | 9.0 | 19.0 | 0.00 | 0.00 | 0.00 | 64 | 1019.3 |
| 20260505182029 | 73 | 211 | 13.0 | 19.0 | 0.00 | 0.00 | 0.00 | 63 | 1019.3 |
| 20260505181542 | 74 | 246 | 10.0 | 18.0 | 0.00 | 0.00 | 0.00 | 61 | 1019.1 |
| 20260505181029 | 73 | 194 | 10.0 | 17.0 | 0.00 | 0.00 | 0.00 | 64 | 1019.3 |
| 20260505180529 | 73 | 242 | 10.0 | 20.0 | 0.00 | 0.00 | 0.00 | 63 | 1019.2 |
| 20260505175530 | 74 | 229 | 5.0 | 18.0 | 0.00 | 0.00 | 0.00 | 63 | 1019.2 |
| 20260505175032 | 73 | 233 | 8.0 | 18.0 | 0.00 | 0.00 | 0.00 | 62 | 1019.2 |
| 20260505174559 | 74 | 146 | 8.0 | 18.0 | 0.00 | 0.00 | 0.00 | 61 | 1019.3 |
| 20260505174029 | 74 | 200 | 8.0 | 14.0 | 0.00 | 0.00 | 0.00 | 62 | 1019.2 |
| 20260505173531 | 74 | 194 | 7.0 | 16.0 | 0.00 | 0.00 | 0.00 | 62 | 1019.2 |
| 20260505173046 | 74 | 193 | 9.0 | 19.0 | 0.00 | 0.00 | 0.00 | 61 | 1019.2 |
| 20260505172531 | 74 | 182 | 7.0 | 19.0 | 0.00 | 0.00 | 0.00 | 61 | 1019.2 |
| 20260505172029 | 73 | 152 | 7.0 | 14.0 | 0.00 | 0.00 | 0.00 | 60 | 1019.1 |
| 20260505171542 | 74 | 153 | 8.0 | 14.0 | 0.00 | 0.00 | 0.00 | 60 | 1019.2 |
| 20260505171030 | 74 | 209 | 7.0 | 17.0 | 0.00 | 0.00 | 0.00 | 62 | 1019.2 |
| 20260505170529 | 74 | 226 | 8.0 | 17.0 | 0.00 | 0.00 | 0.00 | 59 | 1019.2 |
| 20260505170041 | 74 | 153 | 8.0 | 16.0 | 0.00 | 0.00 | 0.00 | 59 | 1019.2 |
| 20260505165529 | 75 | 203 | 6.0 | 16.0 | 0.00 | 0.00 | 0.00 | 59 | 1019.3 |
| 20260505165029 | 74 | 243 | 5.0 | 16.0 | 0.00 | 0.00 | 0.00 | 60 | 1019.3 |
| 20260505164548 | 74 | 168 | 8.0 | 16.0 | 0.00 | 0.00 | 0.00 | 60 | 1019.4 |
| 20260505164029 | 74 | 210 | 8.0 | 16.0 | 0.00 | 0.00 | 0.00 | 60 | 1019.4 |
| 20260505163529 | 74 | 152 | 5.0 | 15.0 | 0.00 | 0.00 | 0.00 | 59 | 1019.6 |
| 20260505163047 | 74 | 280 | 6.0 | 16.0 | 0.00 | 0.00 | 0.00 | 61 | 1019.5 |
| 20260505162528 | 73 | 231 | 11.0 | 16.0 | 0.00 | 0.00 | 0.00 | 60 | 1019.4 |
| 20260505162029 | 73 | 250 | 8.0 | 14.0 | 0.00 | 0.00 | 0.00 | 61 | 1019.4 |
| 20260505161549 | 73 | 243 | 8.0 | 14.0 | 0.00 | 0.00 | 0.00 | 60 | 1019.4 |
| 20260505161032 | 73 | 214 | 8.0 | 12.0 | 0.00 | 0.00 | 0.00 | 59 | 1019.5 |
| 20260505160530 | 73 | 292 | 5.0 | 15.0 | 0.00 | 0.00 | 0.00 | 59 | 1019.5 |
| 20260505153042 | 74 | 191 | 6.0 | 14.0 | 0.00 | 0.00 | 0.00 | 56 | 1019.7 |
| 20260505152532 | 74 | 179 | 8.0 | 14.0 | 0.00 | 0.00 | 0.00 | 56 | 1019.5 |
| 20260505152029 | 74 | 248 | 7.0 | 14.0 | 0.00 | 0.00 | 0.00 | 55 | 1019.6 |
| 20260505151549 | 74 | 218 | 5.0 | 14.0 | 0.00 | 0.00 | 0.00 | 55 | 1019.7 |
| 20260505151029 | 73 | 233 | 8.0 | 14.0 | 0.00 | 0.00 | 0.00 | 53 | 1019.6 |
| 20260505150531 | 73 | 262 | 5.0 | 13.0 | 0.00 | 0.00 | 0.00 | 57 | 1019.6 |
| 20260505140529 | 72 | 243 | 7.0 | 12.0 | 0.00 | 0.00 | 0.00 | 57 | 1019.6 |
| 20260505125029 | 69 | 214 | 4.0 | 8.0 | 0.00 | 0.00 | 0.00 | 72 | 1019.7 |
| 20260505124546 | 68 | 210 | 3.0 | 7.0 | 0.00 | 0.00 | 0.00 | 74 | 1019.5 |
| 20260505124029 | 68 | 222 | 4.0 | 7.0 | 0.00 | 0.00 | 0.00 | 76 | 1019.6 |
| 20260505123530 | 67 | 240 | 3.0 | 7.0 | 0.00 | 0.00 | 0.00 | 77 | 1019.5 |
| 20260505123041 | 67 | 245 | 3.0 | 7.0 | 0.00 | 0.00 | 0.00 | 79 | 1019.7 |
| 20260505122529 | 67 | 221 | 3.0 | 5.0 | 0.00 | 0.00 | 0.00 | 80 | 1019.7 |
| 20260505122035 | 66 | 207 | 4.0 | 5.0 | 0.00 | 0.00 | 0.00 | 81 | 1019.6 |
| 20260505121546 | 66 | 222 | 1.0 | 4.0 | 0.00 | 0.00 | 0.00 | 82 | 1019.5 |
| 20260505121029 | 66 | 214 | 1.0 | 3.0 | 0.00 | 0.00 | 0.00 | 84 | 1019.4 |
| 20260505120529 | 65 | 213 | 1.0 | 2.0 | 0.00 | 0.00 | 0.00 | 84 | 1019.5 |
| 20260505120045 | 65 | 213 | 1.0 | 2.0 | 0.00 | 0.00 | 0.00 | 84 | 1019.4 |
| 20260505115529 | 65 | 231 | 0.0 | 0.0 | 0.00 | 0.00 | 0.00 | 85 | 1019.4 |
| 20260505115030 | 65 | 0 | 0.0 | 0.0 | 0.00 | 0.00 | 0.00 | 87 | 1019.3 |
| 20260505114544 | 63 | 0 | 0.0 | 0.0 | 0.00 | 0.00 | 0.00 | 90 | 1019.4 |
| 20260505114030 | 61 | 0 | 0.0 | 0.0 | 0.00 | 0.00 | 0.00 | 91 | 1019.3 |
| 20260505113530 | 60 | 0 | 0.0 | 0.0 | 0.00 | 0.00 | 0.00 | 92 | 1019.3 |
| 20260505113041 | 59 | 0 | 0.0 | 0.0 | 0.00 | 0.00 | 0.00 | 93 | 1019.2 |
| 20260505112530 | 58 | 0 | 0.0 | 0.0 | 0.00 | 0.00 | 0.00 | 93 | 1019.3 |
| 20260505112029 | 57 | 0 | 0.0 | 0.0 | 0.00 | 0.00 | 0.00 | 94 | 1019.2 |
| 20260505111542 | 56 | 0 | 0.0 | 0.0 | 0.00 | 0.00 | 0.00 | 93 | 1019.1 |
| 20260505111029 | 55 | 0 | 0.0 | 0.0 | 0.00 | 0.00 | 0.00 | 94 | 1019.2 |
| 20260505110529 | 55 | 0 | 0.0 | 0.0 | 0.00 | 0.00 | 0.00 | 93 | 1019.2 |
| 20260505102028 | 54 | 0 | 0.0 | 0.0 | 0.00 | 0.00 | 0.00 | 93 | 1018.6 |
| 20260505101542 | 54 | 0 | 0.0 | 0.0 | 0.00 | 0.00 | 0.00 | 93 | 1018.6 |
| 20260505101029 | 54 | 0 | 0.0 | 0.0 | 0.00 | 0.00 | 0.00 | 93 | 1018.5 |
| 20260505100529 | 54 | 0 | 0.0 | 0.0 | 0.00 | 0.00 | 0.00 | 93 | 1018.5 |
| 20260505100042 | 54 | 0 | 0.0 | 0.0 | 0.00 | 0.00 | 0.00 | 93 | 1018.4 |
| 20260505095528 | 54 | 0 | 0.0 | 0.0 | 0.00 | 0.00 | 0.00 | 93 | 1018.4 |
| 20260505095033 | 54 | 0 | 0.0 | 0.0 | 0.00 | 0.00 | 0.00 | 93 | 1018.3 |
| 20260505094547 | 54 | 0 | 0.0 | 0.0 | 0.00 | 0.00 | 0.00 | 92 | 1018.3 |
| 20260505094029 | 54 | 0 | 0.0 | 0.0 | 0.00 | 0.00 | 0.00 | 92 | 1018.2 |
| 20260505093529 | 55 | 0 | 0.0 | 0.0 | 0.00 | 0.00 | 0.00 | 92 | 1018.2 |
| 20260505093049 | 55 | 0 | 0.0 | 0.0 | 0.00 | 0.00 | 0.00 | 92 | 1018.1 |
| 20260505092529 | 55 | 0 | 0.0 | 0.0 | 0.00 | 0.00 | 0.00 | 92 | 1018.1 |
| 20260505092029 | 55 | 0 | 0.0 | 0.0 | 0.00 | 0.00 | 0.00 | 92 | 1018.2 |
| 20260505091605 | 54 | 0 | 0.0 | 0.0 | 0.00 | 0.00 | 0.00 | 91 | 1018.3 |
| 20260505091028 | 55 | 0 | 0.0 | 0.0 | 0.00 | 0.00 | 0.00 | 91 | 1018.1 |
| 20260505090528 | 55 | 0 | 0.0 | 0.0 | 0.00 | 0.00 | 0.00 | 91 | 1018.0 |
| 20260505090049 | 55 | 0 | 0.0 | 0.0 | 0.00 | 0.00 | 0.00 | 90 | 1017.9 |
| 20260505085532 | 55 | 0 | 0.0 | 0.0 | 0.00 | 0.00 | 0.00 | 90 | 1018.0 |
| 20260505085030 | 55 | 0 | 0.0 | 0.0 | 0.00 | 0.00 | 0.00 | 90 | 1017.9 |
| 20260505084543 | 55 | 0 | 0.0 | 0.0 | 0.00 | 0.00 | 0.00 | 90 | 1017.9 |
| 20260505084028 | 55 | 0 | 0.0 | 0.0 | 0.00 | 0.00 | 0.00 | 90 | 1017.8 |
| 20260505083528 | 55 | 0 | 0.0 | 0.0 | 0.00 | 0.00 | 0.00 | 90 | 1017.9 |
| 20260505083046 | 55 | 0 | 0.0 | 0.0 | 0.00 | 0.00 | 0.00 | 90 | 1017.9 |
| 20260505082529 | 56 | 0 | 0.0 | 0.0 | 0.00 | 0.00 | 0.00 | 89 | 1017.8 |
| 20260505082029 | 56 | 0 | 0.0 | 0.0 | 0.00 | 0.00 | 0.00 | 89 | 1017.9 |
| 20260505081555 | 56 | 0 | 0.0 | 0.0 | 0.00 | 0.00 | 0.00 | 89 | 1017.9 |
| 20260505081029 | 56 | 0 | 0.0 | 0.0 | 0.00 | 0.00 | 0.00 | 89 | 1017.8 |
| 20260505080529 | 56 | 0 | 0.0 | 0.0 | 0.00 | 0.00 | 0.00 | 89 | 1017.9 |
| 20260505080056 | 56 | 0 | 0.0 | 0.0 | 0.00 | 0.00 | 0.00 | 89 | 1017.8 |
| 20260505075529 | 56 | 0 | 0.0 | 0.0 | 0.00 | 0.00 | 0.00 | 88 | 1017.7 |
| 20260505075029 | 56 | 0 | 0.0 | 0.0 | 0.00 | 0.00 | 0.00 | 88 | 1017.7 |
| 20260505074544 | 56 | 0 | 0.0 | 0.0 | 0.00 | 0.00 | 0.00 | 88 | 1017.7 |
| 20260505074029 | 56 | 0 | 0.0 | 0.0 | 0.00 | 0.00 | 0.00 | 88 | 1017.7 |
| 20260505073529 | 56 | 0 | 0.0 | 0.0 | 0.00 | 0.00 | 0.00 | 88 | 1017.7 |
| 20260505073046 | 56 | 0 | 0.0 | 0.0 | 0.00 | 0.00 | 0.00 | 87 | 1017.5 |
| 20260505072533 | 57 | 0 | 0.0 | 0.0 | 0.00 | 0.00 | 0.00 | 87 | 1017.6 |
| 20260505072029 | 57 | 0 | 0.0 | 0.0 | 0.00 | 0.00 | 0.00 | 86 | 1017.6 |
| 20260505071553 | 57 | 0 | 0.0 | 0.0 | 0.00 | 0.00 | 0.00 | 86 | 1017.7 |
| 20260505071029 | 57 | 0 | 0.0 | 0.0 | 0.00 | 0.00 | 0.00 | 86 | 1017.7 |
| 20260505070532 | 57 | 0 | 0.0 | 0.0 | 0.00 | 0.00 | 0.00 | 86 | 1017.8 |
| 20260505070049 | 57 | 0 | 0.0 | 0.0 | 0.00 | 0.00 | 0.00 | 85 | 1017.7 |
| 20260505065528 | 57 | 0 | 0.0 | 0.0 | 0.00 | 0.00 | 0.00 | 85 | 1017.7 |
| 20260505065028 | 58 | 0 | 0.0 | 0.0 | 0.00 | 0.00 | 0.00 | 84 | 1017.7 |
| 20260505064544 | 58 | 0 | 0.0 | 0.0 | 0.00 | 0.00 | 0.00 | 84 | 1017.7 |
| 20260505064028 | 58 | 0 | 0.0 | 0.0 | 0.00 | 0.00 | 0.00 | 83 | 1017.6 |
| 20260505063529 | 59 | 0 | 0.0 | 0.0 | 0.00 | 0.00 | 0.00 | 83 | 1017.7 |
| 20260505063103 | 59 | 0 | 0.0 | 0.0 | 0.00 | 0.00 | 0.00 | 82 | 1017.7 |
| 20260505062530 | 59 | 0 | 0.0 | 0.0 | 0.00 | 0.00 | 0.00 | 81 | 1017.7 |
| 20260505062029 | 60 | 0 | 0.0 | 1.0 | 0.00 | 0.00 | 0.00 | 80 | 1017.9 |
| 20260505061607 | 60 | 0 | 0.0 | 1.0 | 0.00 | 0.00 | 0.00 | 80 | 1017.9 |
| 20260505061031 | 60 | 0 | 0.0 | 1.0 | 0.00 | 0.00 | 0.00 | 80 | 1017.8 |
| 20260505060533 | 60 | 0 | 0.0 | 1.0 | 0.00 | 0.00 | 0.00 | 79 | 1017.9 |
| 20260505060048 | 60 | 0 | 0.0 | 1.0 | 0.00 | 0.00 | 0.00 | 78 | 1018.0 |
| 20260505055529 | 61 | 0 | 0.0 | 1.0 | 0.00 | 0.00 | 0.00 | 78 | 1018.0 |
| 20260505055030 | 61 | 0 | 0.0 | 1.0 | 0.00 | 0.00 | 0.00 | 77 | 1017.9 |
| 20260505054544 | 61 | 0 | 0.0 | 2.0 | 0.00 | 0.00 | 0.00 | 77 | 1018.0 |
| 20260505054028 | 61 | 0 | 0.0 | 4.0 | 0.00 | 0.00 | 0.00 | 77 | 1018.0 |
| 20260505053528 | 61 | 259 | 1.0 | 4.0 | 0.00 | 0.00 | 0.00 | 76 | 1018.1 |
| 20260505053047 | 61 | 248 | 1.0 | 2.0 | 0.00 | 0.00 | 0.00 | 76 | 1018.1 |
| 20260505052531 | 61 | 248 | 1.0 | 3.0 | 0.00 | 0.00 | 0.00 | 76 | 1018.1 |
| 20260505052029 | 62 | 247 | 2.0 | 3.0 | 0.00 | 0.00 | 0.00 | 75 | 1018.0 |
| 20260505051606 | 62 | 223 | 1.0 | 4.0 | 0.00 | 0.00 | 0.00 | 75 | 1018.0 |
| 20260505051029 | 62 | 268 | 2.0 | 4.0 | 0.00 | 0.00 | 0.00 | 75 | 1018.2 |
| 20260505050531 | 62 | 236 | 2.0 | 4.0 | 0.00 | 0.00 | 0.00 | 75 | 1018.1 |
| 20260505041550 | 62 | 263 | 2.0 | 6.0 | 0.00 | 0.00 | 0.00 | 76 | 1018.2 |
| 20260505041029 | 62 | 200 | 3.0 | 6.0 | 0.00 | 0.00 | 0.00 | 76 | 1018.1 |
| 20260505040529 | 62 | 229 | 2.0 | 5.0 | 0.00 | 0.00 | 0.00 | 76 | 1018.2 |
| 20260505040044 | 62 | 227 | 2.0 | 5.0 | 0.00 | 0.00 | 0.00 | 76 | 1018.4 |
| 20260505035529 | 62 | 219 | 2.0 | 6.0 | 0.00 | 0.00 | 0.00 | 76 | 1018.3 |
| 20260505035029 | 62 | 283 | 2.0 | 6.0 | 0.00 | 0.00 | 0.00 | 76 | 1018.3 |
| 20260505034542 | 62 | 245 | 1.0 | 6.0 | 0.00 | 0.00 | 0.00 | 76 | 1018.3 |